Volver al catálogo

GHGSAT-C1

ActivoCienciaSSO
NORAD 46278·PAYLOAD·🇨🇦 Canada

Lanzado Sep 3, 2020 desde Guiana Space Centre

Loading…

Próximos Pases (próximas 24 horas)

TLE

ActualizadoSource: Space-Track

Época: Sep 14, 2026, 18:50 UTC

1 46278U 20061G   26257.78499572  .00142179  00000-0  67435-3 0  9991
2 46278  97.2031 346.3674 0001796 244.0802 116.0283 15.82568406337589

Sigue GHGSAT-C1 en tiempo real con AllMySat

Download on the App Store